SCP
0 0 0 0 0 0 0 0 0 0 0 0 0 0 0 0 0 0 0 0 0 0 0 0 0 0 0 0 0 0 0 0 0 0 0 0 0 -0
0 0 0 0 0 0 0 0 0 0 0 0 0 0 0 0 0 0 0 0 0 0 0 0 0 0 0 0 0 0 0 0 0 0 0 0 -0 -0
0 0 0 0 0 0 0 0 0 0 0 0 0 0 0 0 0 0 0 0 0 0 0 0 0 0 0 0 0 0 0 0 0 0 0 0 -0 -0
0 0 0 0 0 0 0 0 0 0 0 0 0 0 0 0 0 0 0 0 0 0 0 0 0 0 0 0 0 0 0 0 0 0 0 -0 -0 -0
0 0 0 0 0 0 0 0 0 0 0 0 0 0 0 0 0 0 0 0 0 0 0 0 0 0 0 0 0 0 0 0 0 0 0 -0 -0 -0
0 0 0 0 0 0 0 0 0 0 0 0 0 0 0 0 0 0 0 0 0 0 0 0 0 0 0 0 0 0 0 0 0 0 0 -0 -0 -0
0 0 0 0 0 0 0 0 0 0 0 0 0 0 0 0 0 0 0 0 0 0 0 0 0 0 0 0 0 0 0 0 0 -0 -0 0 -0 -0
0 0 0 0 0 0 0 0 0 0 0 0 0 0 0 0 0 0 0 0 0 0 0 0 0 0 0 0 0 0 0 0 0 0 0 0 0 0
0 0 0 0 0 0 0 0 0 0 0 0 0 0 0 0 0 0 0 0 0 0 0 0 0 0 0 0 0 0 0 0 0 0 0 0 0 0
0 0 0 0 0 0 0 0 0 0 0 0 0 0 0 0 0 0 0 0 0 0 0 0 0 0 0 0 0 0 0 0 0 0 0 0 0 0
0 0 0 0 0 0 0 0 0 0 0 0 0 0 0 0 0 0 0 0 0 0 0 0 0 0 0 0 0 0 0 0 0 0 0 0 0 0
0 0 0 0 0 0 0 0 0 0 0 0 0 0 0 0 0 0 0 0 0 0 0 0 0 0 0 0 0 0 0 0 0 0 0 0 0 0
0 0 0 0 0 0 0 0 0 0 0 0 0 0 0 0 0 0 0 0 0 0 0 0 0 0 0 0 0 0 0 0 0 0 0 0 0 0
0 0 0 0 0 0 0 0 0 -0 0 0 0 0 0 0 0 0 0 0 0 0 0 0 0 0 0 0 0 0 0 0 0 0 0 0 0 0
0 0 0 0 0 0 0 0 0 0 0 0 0 0 0 0 0 0 0 0 0 0 0 0 0 0 0 0 0 0 0 0 0 0 0 0 0 0
0 0 0 0 0 0 0 0 0 0 0 0 0 0 0 0 0 0 0 0 0 0 0 0 0 0 0 0 0 0 0 0 0 0 0 0 0 0
0 0 0 0 0 0 0 0 0 0 0 0 0 0 0 0 0 0 0 0 0 0 0 0 0 0 0 0 0 0 0 0 0 0 0 0 0 0
0 0 0 0 0 0 0 0 0 0 0 0 0 0 0 0 0 0 0 0 0 0 0 0 0 0 0 0 0 0 0 0 0 0 0 0 0 0
0 0 0 0 0 0 0 0 0 0 0 0 0 0 0 0 0 0 0 0 0 0 0 0 0 0 0 0 0 0 0 0 0 0 0 0 0 -0
0 0 0 0 0 0 0 0 0 0 0 0 0 0 0 0 0 0 0 0 0 0 0 0 0 0 0 0 0 0 0 0 0 0 0 0 0 -0
0 0 0 0 0 0 0 0 0 0 0 0 0 0 0 0 0 0 0 0 0 0 0 0 0 0 0 0 0 0 0 0 0 0 0 0 0 0
0 0 0 0 0 0 0 0 0 0 0 0 0 0 0 0 0 0 0 0 0 0 0 0 0 0 0 0 0 0 0 0 0 0 0 0 0 0
0 0 0 0 0 0 0 0 0 0 0 0 0 0 0 0 0 0 0 0 0 0 0 0 0 0 0 0 0 0 0 0 0 0 0 0 0 0
Wind_Speed
3 3 2 2 2 2 2 1 2 2 2 3 2 3 2 2 2 2 2 2 2 3 5 6 5 5 7 10 13 17 22 24 26 26 25 23 21 20
2 3 3 2 2 2 2 2 2 2 3 3 3 4 4 4 3 3 2 2 1 1 2 2 1 3 7 11 15 19 22 23 23 23 21 19 17 16
4 4 5 5 3 3 3 2 2 2 5 4 3 4 4 4 1 2 1 1 0 0 1 2 4 7 11 14 17 20 21 21 21 20 19 17 15 14
6 6 6 5 6 4 4 4 3 3 3 5 3 3 3 3 1 2 2 1 1 1 2 4 7 10 12 15 17 18 19 19 18 18 17 16 15 15
6 6 6 5 6 5 5 5 4 4 3 3 4 3 2 2 1 1 2 1 1 2 3 4 7 9 12 14 15 16 17 16 16 16 16 15 15 14
6 6 6 5 5 5 5 6 5 5 4 3 3 3 3 3 2 0 1 1 1 2 2 3 5 8 10 12 13 14 15 15 15 15 15 15 15 14
7 7 8 9 9 6 4 5 5 5 5 4 4 4 4 4 4 2 1 1 1 1 2 2 3 4 5 8 10 12 13 13 14 14 14 14 14 14
8 7 7 10 11 11 10 8 7 5 5 5 4 5 6 5 5 3 1 1 2 1 2 3 3 4 5 6 9 12 12 13 13 13 13 14 14 14
7 7 7 9 10 9 9 9 9 9 7 3 4 5 5 5 6 5 3 1 0 1 1 2 3 3 4 5 10 12 13 14 14 14 14 15 15 15
7 6 7 8 10 8 8 9 9 10 9 5 4 4 5 6 5 4 4 2 2 3 2 1 1 1 1 3 8 12 13 14 14 14 15 15 16 15
6 7 8 7 11 11 9 9 9 8 8 10 9 9 10 11 8 5 5 4 3 3 3 2 1 1 0 1 2 6 9 10 12 13 14 14 14 13
4 5 9 10 10 10 7 7 8 6 7 8 9 11 11 11 12 8 5 4 3 3 3 2 2 2 1 1 1 2 3 5 7 9 10 12 11 9
4 5 5 10 10 10 7 5 5 4 4 6 6 7 8 8 9 9 6 4 3 2 2 2 1 1 1 2 1 1 2 2 2 3 6 8 10 10
3 3 4 8 8 9 7 8 9 6 5 6 6 7 7 7 7 8 8 6 3 3 4 2 1 1 1 1 1 1 1 2 2 3 3 4 7 10
2 4 6 8 7 6 9 10 8 6 5 6 5 5 4 5 6 5 7 6 5 6 6 4 3 2 2 2 2 1 2 1 1 1 2 3 3 4
3 5 6 7 7 6 6 6 5 5 4 4 4 4 4 5 6 6 6 6 5 6 7 8 6 3 2 1 1 2 1 2 2 2 2 2 1 1
2 3 4 4 5 5 5 5 5 5 5 4 4 5 5 6 6 5 5 5 5 6 7 7 7 4 2 3 3 3 2 1 1 1 3 4 3 3
3 3 3 3 3 3 3 4 4 5 5 5 5 5 5 6 6 5 5 5 5 5 6 6 7 5 3 4 5 5 4 3 1 1 2 2 2 2
3 2 1 1 1 2 2 2 3 3 3 4 5 5 5 5 5 6 6 6 6 6 6 6 6 6 5 5 4 7 5 3 2 1 1 1 1 0
1 2 2 2 1 1 1 1 2 2 3 3 4 4 5 5 5 6 6 7 6 6 6 6 6 6 4 3 3 3 6 4 3 2 0 1 1 2
3 3 3 3 2 2 2 1 0 1 2 2 3 4 4 4 5 5 5 7 6 6 7 7 7 8 5 2 2 2 2 4 3 2 1 1 0 1
5 5 4 4 3 3 3 2 2 1 0 1 2 2 3 3 4 5 5 5 5 6 6 6 8 7 5 4 4 3 2 2 3 3 4 2 0 2
7 6 6 5 5 4 4 4 4 3 2 1 1 1 2 3 3 4 4 4 5 6 6 7 7 6 6 5 5 4 5 4 2 2 2 4 4 3
Wind_Direction
3 11 16 10 9 357 340 309 278 281 281 273 283 296 289 267 238 231 236 260 275 297 304 301 287 243 202 184 170 160 159 162 165 168 174 177 181 185
354 10 14 9 2 352 330 300 270 266 277 276 263 276 282 270 229 215 217 218 256 313 326 338 20 143 148 147 145 146 149 154 160 165 169 174 179 183
20 27 23 20 18 9 2 348 320 280 272 281 263 275 270 263 218 179 170 177 174 96 90 97 111 122 128 132 135 139 145 151 157 162 168 173 176 182
34 35 28 29 31 16 12 7 345 313 281 290 298 306 296 309 267 170 152 162 139 136 130 123 122 123 125 129 133 138 143 151 157 163 168 173 180 187
35 33 21 27 29 17 14 10 352 342 324 315 321 322 321 342 346 112 139 122 144 149 140 128 128 128 130 134 138 143 148 154 160 167 173 179 186 193
32 27 22 24 18 7 9 8 2 4 2 356 345 339 327 326 333 342 164 144 148 158 136 124 135 136 141 144 149 152 158 164 169 175 181 187 194 200
31 27 29 33 31 22 14 5 9 14 13 14 9 3 359 355 349 332 235 151 143 147 149 153 148 149 159 162 165 168 172 177 182 186 191 197 203 207
32 20 24 26 15 15 17 24 26 22 13 15 13 9 357 348 334 327 304 174 176 165 165 170 170 178 179 184 190 190 191 194 197 201 204 208 212 214
36 27 26 16 14 8 7 22 30 30 27 8 15 4 342 333 334 339 345 345 29 108 150 162 177 197 195 198 198 203 207 208 209 212 214 217 220 221
39 31 29 19 14 9 18 25 27 27 24 26 10 343 329 325 326 317 321 347 44 33 25 99 134 198 192 203 207 211 216 218 220 222 222 222 223 225
33 30 28 22 7 20 31 26 25 20 22 37 38 28 18 15 9 10 10 17 24 22 14 28 33 21 357 241 211 212 217 220 223 225 226 227 225 225
22 20 22 17 9 21 33 31 24 1 358 17 24 22 21 20 23 23 10 14 11 15 6 16 19 13 354 339 255 212 212 218 221 225 228 228 221 219
33 13 4 7 19 24 31 30 7 349 9 23 26 22 19 17 16 15 10 1 3 5 351 353 10 12 352 320 317 269 237 233 223 231 231 232 220 212
35 355 351 14 32 36 34 26 26 32 38 39 34 25 17 10 1 2 8 9 360 339 330 325 324 314 312 301 300 316 274 245 239 244 231 216 225 226
13 6 17 26 35 41 36 33 34 37 39 39 30 15 354 345 355 359 7 11 19 25 18 360 331 302 277 283 301 315 322 341 334 276 231 207 213 209
15 10 29 41 47 38 31 29 31 30 32 27 7 356 354 2 11 9 7 5 6 1 3 4 357 331 309 294 286 312 327 342 14 35 37 36 10 229
20 37 39 38 41 35 30 27 24 25 26 17 13 11 11 13 10 2 7 11 13 1 357 355 352 351 334 341 1 5 360 0 25 59 75 73 47 39
86 71 60 53 50 39 30 25 24 22 16 17 21 18 13 10 10 10 13 14 11 4 1 356 355 360 15 60 38 15 14 2 347 107 119 103 83 39
102 112 112 100 81 61 45 37 28 17 14 23 23 16 10 9 10 9 10 10 8 5 4 1 8 13 8 357 15 37 22 359 335 290 161 123 138 185
181 178 180 178 170 150 99 57 36 26 25 23 19 14 11 8 8 6 6 5 3 2 4 8 8 2 349 325 325 357 27 18 349 333 64 52 10 350
214 213 209 203 202 198 193 183 135 45 32 26 23 17 12 8 5 1 358 358 0 1 1 358 341 323 297 286 305 340 11 24 23 354 337 139 129 288
222 220 218 215 210 203 199 200 202 202 181 32 23 14 10 8 3 358 356 356 356 355 349 346 345 351 357 355 349 344 346 358 17 42 53 55 161 228
222 221 219 215 211 204 201 206 213 217 220 232 280 342 354 355 352 354 356 360 358 358 355 353 357 1 2 358 349 350 359 2 359 2 0 355 353 302